Weather in Verkhozim

Russia / Penza Oblast     52°53′47″N   46°21′17″E
temp.,
°C
wind,
m/s
gust,
m/s
humid.,
%
clouds,
%
prec.,
mm/h
press.,
hPa
HPBL,
m
5 august, thu
thu500:00+15nw22759 0.0 101531
03:00+14wnw22735 0.0 101619
06:00+16nw256985 0.0 1017138
09:00+22nnw34465 0.0 1017644
12:00+25nw34380 0.0 10162228
15:00+25nnw443638 0.0 10162432
18:00+23n3653100 0.0 1016225
21:00+17ne336311 0.0 101734
6 august, fri
fri600:00+15ne226410 0.0 101812
03:00+14e226293 0.0 101813
06:00+16ese23614 0.0 101875
09:00+23se22395 0.0 1018772
12:00+26ene11331 0.0 10171898
15:00+27ne12310 0.0 10162002
18:00+24ne34465 0.0 1016123
21:00+19ese334799 0.0 101634
7 august, sat
sat700:00+17ese364938 0.0 101696
03:00+16se354622 0.0 101669
06:00+17se355073 0.0 1017120
09:00+25sse353270 0.0 1017678
12:00+29sse34266 0.0 10161697
15:00+30se3324100 0.0 10152081
18:00+27ese343682 0.0 101565
21:00+23ese3534100 0.0 101662
8 august, sun
sun800:00+20ese3336100 0.0 101644
03:00+19ese3337100 0.0 101645
06:00+20se374381 0.0 1016138
09:00+29sse682761 0.0 1016648
12:00+32sse5521100 0.0 10152036
15:00+32sse2426100 0.0 10151542
18:00+28ese3333100 0.0 101439
21:00+25ese2232100 0.0 101521
9 august, mon
mon900:00+23s343498 0.0 101573
03:00+21ssw2463100 0.1 101676
06:00+21e3459100 0.0 101585
09:00+27ene583898 0.0 1013393
12:00+32e572697 0.0 10111334
15:00+30e61027100 0.0 1010495
18:00+27n4940100 0.0 1009280
21:00+25nne51343100 0.0 1010383